Flag Weather past 2 weeks in Christchurch, New Zealand

Now
48 °F

Cool.


Feels Like: 45 °F
Forecast: 44 / 71 °F
Wind: 8 mph from East

Location: Christchurch Airport

Current Time: Oct 31, 2014 at 11:04:32 PM

Latest Report: Oct 31, 2014 at 10:30 PM


Visibility: N/A

Pressure: 29.80 "Hg

Humidity: 82%

Dew point: 43 °F

Location of ChristchurchLocation

Historic Weather in Christchurch — Graph

°F

Christchurch temperature yesterday

Maximum temperature yesterday: 68 °F (at 2:30 PM)
Minimum temperature yesterday: 41 °F (at 6:30 AM)
Average temperature yesterday: 54 °F

Past Weeks' High & Low Weather Summary

 TemperatureHumidityPressure
High75 °F (Oct 17, 12:30 PM)100% (Oct 19, 12:00 AM)30.24 "Hg (Oct 19, 12:00 AM)
Low32 °F (Oct 20, 5:00 AM)28% (Oct 30, 12:00 PM)29.03 "Hg (Oct 29, 8:00 AM)
Average53 °F71%29.81 "Hg
* Reported Oct 16 10:00 PM — Oct 31 10:00 PM, Christchurch, Weather by CustomWeather, © 2014

Note: Actual official high and low records may vary slightly from our data, if they occured in-between our weather recording intervals... More about our weather records

Advertising

Christchurch weather history for previous 24 hours

 ConditionsComfort  
Time TempWeatherWind HumidityBarometerVisibility
10:00 PM
Oct 31
48 °FCool.7 mph82%29.80 "HgN/A
9:30 PM48 °FCool.7 mph82%29.80 "HgN/A
9:00 PM46 °FPassing clouds.8 mph87%29.77 "HgN/A
8:30 PM48 °FPassing clouds.9 mph82%29.74 "HgN/A
8:00 PM50 °FScattered clouds.9 mph82%29.74 "HgN/A
7:30 PM52 °FCool.9 mph77%29.71 "HgN/A
7:00 PM54 °FCool.10 mph72%29.71 "HgN/A
6:30 PM57 °FPartly sunny.6 mph55%29.68 "HgN/A
6:00 PM55 °FPartly sunny.5 mph59%29.68 "HgN/A
5:30 PM55 °FPartly sunny.13 mph59%29.65 "HgN/A
5:00 PM55 °FPartly sunny.21 mph67%29.62 "HgN/A
4:30 PM54 °FSprinkles. Partly sunny.15 mph82%29.59 "HgN/A
3:30 PM57 °FCool.10 mph72%29.53 "HgN/A
3:00 PM55 °FLight rain. Scattered clouds.15 mph77%29.50 "HgN/A
2:30 PM59 °FBroken clouds.21 mph72%29.50 "HgN/A
2:00 PM61 °FScattered clouds.14 mph68%29.47 "HgN/A
1:30 PM61 °FBroken clouds.14 mph63%29.50 "HgN/A
1:00 PM64 °FScattered clouds.14 mph56%29.50 "HgN/A
12:30 PM63 °FPassing clouds.13 mph59%29.50 "HgN/A
12:00 PM63 °FPassing clouds.13 mph64%29.50 "HgN/A
11:30 AM61 °FPartly sunny.14 mph63%29.53 "HgN/A
11:00 AM63 °FPartly sunny.7 mph52%29.53 "HgN/A
10:30 AM64 °FPartly sunny.3 mph46%29.53 "HgN/A
10:00 AM63 °FPassing clouds.5 mph45%29.53 "HgN/A
9:30 AM63 °FMild.2 mph45%29.53 "HgN/A
9:00 AM61 °FRefreshingly cool.5 mph48%29.53 "HgN/A
8:30 AM59 °FPassing clouds.5 mph51%29.53 "HgN/A
8:00 AM57 °FScattered clouds.3 mph55%29.53 "HgN/A
7:30 AM55 °FRefreshingly cool.3 mph59%29.50 "HgN/A
7:00 AM54 °FScattered clouds.6 mph58%29.50 "HgN/A
6:30 AM52 °FScattered clouds.3 mph58%29.50 "HgN/A
6:00 AM52 °FPassing clouds.8 mph58%29.50 "HgN/A
5:30 AM57 °FRefreshingly cool.10 mph44%29.50 "HgN/A
5:00 AM57 °FRefreshingly cool.13 mph44%29.47 "HgN/A
4:30 AM59 °FRefreshingly cool.15 mph42%29.47 "HgN/A
4:00 AM59 °FRefreshingly cool.16 mph42%29.47 "HgN/A
3:30 AM59 °FRefreshingly cool.12 mph45%29.47 "HgN/A
3:00 AM59 °FRefreshingly cool.14 mph45%29.47 "HgN/A
2:30 AM59 °FRefreshingly cool.15 mph45%29.47 "HgN/A
2:00 AM61 °FRefreshingly cool.17 mph42%29.47 "HgN/A
1:30 AM61 °FRefreshingly cool.18 mph42%29.47 "HgN/A
1:00 AM52 °FCool.3 mph67%29.47 "HgN/A
12:30 AM46 °FCool.No wind93%29.50 "HgN/A
12:00 AM46 °FCool.5 mph87%29.50 "HgN/A
11:30 PM
Oct 30
48 °FCool.3 mph87%29.50 "HgN/A
11:00 PM48 °FCool.5 mph87%29.50 "HgN/A
Weather by CustomWeather, © 2014

See weather overviewHow to use our weather pages